Theta_e
302 302 301 301 301 301 301 301 301 301 302 302 305 306 307 310 310 310 310 310 310 309 310 309 309 309 310 309 309 310 303 303 305 305 305 306 306 308 307 309 311 311 310 310 310
301 301 301 301 301 301 300 301 301 301 301 303 306 307 306 308 310 310 310 310 310 309 309 309 308 308 308 308 308 304 301 306 306 306 306 306 307 308 309 308 310 310 310 310 309
301 301 301 301 301 301 300 300 301 301 301 303 306 307 307 309 310 310 310 309 309 310 310 310 309 307 308 308 308 307 306 306 308 309 307 307 308 309 309 309 310 308 309 310 309
301 301 301 301 301 301 300 300 300 301 301 303 305 307 309 310 314 310 309 309 309 310 309 308 309 308 306 306 307 307 308 308 309 309 308 308 308 308 310 310 309 308 310 309 309
301 301 301 300 300 301 301 300 301 301 302 303 305 306 308 308 309 309 309 309 309 310 309 308 309 308 306 306 307 307 308 309 308 309 308 309 309 309 310 310 308 309 311 310 308
301 301 300 300 300 300 301 300 301 301 302 304 305 306 309 309 308 309 309 309 309 308 308 308 309 309 308 306 306 307 308 308 310 310 309 309 310 310 310 309 307 310 310 310 308
301 301 300 300 300 300 301 301 301 301 303 306 307 308 310 307 308 309 309 309 308 308 309 309 310 310 308 307 307 308 307 307 308 309 309 310 310 309 309 309 306 308 309 309 308
301 300 300 300 300 300 300 302 302 302 302 305 306 306 306 307 308 308 309 309 309 308 309 310 310 309 308 308 308 308 305 309 309 308 309 308 309 309 309 307 305 307 309 310 310
301 301 300 300 300 300 300 303 302 302 303 304 305 307 306 306 307 308 308 309 309 310 311 312 311 310 311 307 304 301 307 305 309 308 308 308 308 307 309 307 304 305 307 308 310
302 300 300 300 299 299 301 302 302 303 304 304 305 306 305 306 307 308 308 308 309 311 312 313 307 302 302 304 299 303 303 306 307 307 308 308 308 306 309 306 303 303 306 309 308
302 300 300 299 299 299 301 302 303 303 303 305 305 307 306 306 307 308 309 311 311 311 310 307 303 302 306 306 303 299 300 303 305 308 308 307 307 307 309 306 303 302 304 307 307
305 301 300 299 299 299 300 302 304 306 303 303 304 305 306 307 307 308 310 310 309 307 307 303 305 306 306 306 305 304 304 300 302 305 307 301 307 307 309 306 303 302 302 304 308
309 302 300 299 298 299 300 301 304 303 304 303 304 305 305 307 307 307 310 310 308 309 308 305 307 307 310 309 307 309 308 306 305 305 307 307 304 304 310 307 304 302 302 303 306
310 304 301 300 298 299 300 301 302 302 302 303 302 304 305 307 305 306 309 309 308 307 306 307 308 309 309 309 306 309 307 307 308 308 304 304 302 302 309 309 303 302 301 302 304
309 306 301 300 298 298 300 301 302 304 313 303 302 303 305 306 305 305 308 308 307 307 304 307 308 308 309 307 305 308 306 308 309 309 307 303 305 305 309 310 306 302 301 301 301
312 306 303 301 299 299 301 301 301 308 313 301 302 304 304 305 306 305 306 308 307 303 304 305 306 305 306 305 305 305 307 307 305 304 301 304 304 301 306 309 307 302 301 301 301
310 305 302 302 300 300 299 300 309 314 301 299 301 303 303 304 305 305 305 304 302 300 300 305 306 305 304 306 306 305 306 306 304 302 304 303 304 300 306 308 305 302 301 300 300
310 303 306 302 301 300 299 304 315 302 298 299 302 302 303 303 304 305 303 302 304 301 297 301 302 305 304 305 306 306 304 303 304 305 301 302 304 302 307 308 305 303 301 300 299
308 309 306 303 299 298 302 313 312 302 300 301 302 302 301 303 303 305 302 300 302 302 303 303 305 303 304 305 305 306 303 303 304 294 303 304 302 300 307 305 302 302 301 300 299
308 307 305 303 299 297 301 307 302 300 300 301 303 300 298 299 302 303 302 302 303 302 303 304 303 303 305 305 304 306 303 305 302 300 302 303 303 302 303 304 304 301 302 301 299
309 307 305 304 300 300 297 300 296 301 301 301 300 297 300 299 298 301 302 303 302 303 303 303 302 301 303 304 303 305 305 303 303 302 305 305 305 298 302 303 302 305 306 303 300
307 303 303 303 298 295 293 295 298 298 299 299 299 300 300 298 299 299 301 301 303 303 304 302 301 299 303 303 303 304 305 302 303 306 301 303 303 300 302 304 303 304 308 306 302
305 297 299 298 295 290 290 292 296 297 298 299 299 301 299 301 301 302 300 299 302 302 302 303 299 297 301 302 301 303 303 303 301 300 303 303 305 300 302 303 305 305 308 307 303
302 297 297 297 296 294 291 293 295 296 298 298 299 299 299 300 295 299 300 299 302 303 304 303 300 304 307 306 301 301 303 303 302 300 302 302 302 302 302 301 303 307 307 307 305
303 298 297 297 295 294 297 295 297 295 297 298 299 299 300 298 299 296 298 299 300 303 301 298 298 297 300 300 302 303 303 302 302 301 305 305 302 302 301 301 302 304 305 307 306
301 297 295 296 297 297 299 295 300 297 297 298 299 299 298 300 302 300 299 298 301 300 300 298 294 290 293 295 297 301 300 302 302 303 300 301 302 302 304 302 302 303 303 304 307
305 303 302 297 298 298 299 299 298 298 297 299 299 299 298 299 300 299 299 299 299 299 295 294 290 294 299 288 293 302 298 299 301 300 302 304 303 302 302 302 303 304 304 304 304
Wind_Speed
8 7 6 5 5 5 5 5 5 5 4 4 3 1 1 4 12 6 7 9 11 8 5 6 4 6 7 7 7 3 5 2 2 4 2 3 3 3 1 4 8 11 19 29 35
9 8 7 6 5 5 5 4 4 5 4 3 3 2 1 1 3 12 10 10 9 6 4 3 6 5 6 5 6 6 4 4 2 3 2 1 1 3 4 7 6 20 28 29 33
10 9 7 6 5 4 4 5 4 3 3 3 2 2 1 0 2 7 9 9 8 4 3 2 5 6 7 6 7 4 4 5 2 2 3 1 1 2 6 3 8 24 32 32 34
11 9 8 6 5 4 3 4 4 3 3 2 0 2 3 1 1 4 8 9 10 4 3 3 2 4 5 5 4 6 5 3 4 3 2 1 0 1 4 6 17 23 24 28 30
12 11 8 7 6 5 3 3 3 2 2 1 0 0 1 2 3 4 7 9 8 3 3 6 8 6 5 6 6 7 3 6 3 2 3 1 1 1 3 15 18 23 24 26 29
14 12 10 8 7 5 3 3 3 2 2 1 1 1 1 2 1 3 6 8 7 8 5 3 8 12 11 5 5 5 8 5 6 2 1 2 0 2 5 17 21 24 27 25 25
15 14 12 9 8 6 4 3 2 2 1 2 2 2 2 3 2 2 4 6 9 8 11 9 6 3 7 5 7 9 4 2 4 3 0 1 2 3 10 16 22 24 27 26 25
18 15 13 11 9 7 5 4 3 2 2 2 1 1 2 4 3 3 3 5 7 9 13 14 12 13 6 12 6 4 5 2 2 6 1 2 2 1 10 17 23 24 27 28 27
18 16 15 12 10 8 6 5 3 2 2 3 1 1 2 3 2 3 4 5 6 9 9 7 6 7 5 4 4 7 2 3 3 3 5 5 3 4 10 16 21 25 24 27 31
19 18 17 13 11 9 7 5 3 2 2 3 3 1 3 2 3 3 4 5 4 7 4 4 6 4 5 5 2 2 3 2 2 5 5 4 5 6 8 12 17 22 23 26 27
18 19 17 14 13 11 8 6 4 2 4 2 2 2 6 5 4 4 4 6 5 4 3 6 7 3 2 3 4 6 4 1 3 2 3 3 4 5 5 10 16 20 22 23 23
17 18 17 16 14 13 12 7 5 3 4 3 4 3 6 5 2 4 4 2 3 4 2 6 3 3 6 4 4 4 3 3 4 4 3 3 4 4 4 3 9 13 17 22 26
17 17 17 17 16 15 14 12 5 5 2 2 4 3 4 4 2 3 3 4 5 4 3 5 4 6 2 2 3 2 5 1 3 5 1 4 6 5 1 2 9 12 13 17 21
18 17 16 15 13 14 15 13 8 7 4 2 2 3 4 5 1 3 5 3 4 5 4 5 2 2 2 2 1 3 1 2 3 4 1 3 3 4 3 4 5 11 13 15 19
21 18 19 19 8 17 11 13 10 5 2 2 3 4 5 3 5 1 4 3 4 4 4 1 5 2 1 2 1 2 2 2 3 3 3 3 3 6 1 4 2 6 9 12 15
32 20 20 21 15 15 12 16 11 5 6 3 3 4 4 1 2 3 3 4 6 5 6 2 2 1 2 2 2 1 1 3 4 1 3 3 3 4 3 4 2 3 2 7 11
30 26 24 22 15 15 20 19 4 4 4 3 4 5 3 3 2 1 3 4 5 6 1 4 1 1 1 2 2 4 3 2 4 4 4 2 1 7 3 4 6 8 4 2 5
32 30 25 26 14 19 26 4 4 2 6 2 4 4 5 5 2 2 4 2 3 4 4 6 4 2 2 1 3 2 4 4 4 1 4 3 3 2 1 4 6 7 6 4 2
33 29 27 28 18 24 15 3 8 7 7 10 4 5 2 3 4 3 5 4 7 8 5 5 2 1 2 0 0 3 0 2 6 3 3 2 6 2 4 4 8 10 10 8 5
40 33 30 28 20 26 3 9 5 4 6 3 6 4 8 7 5 5 7 4 5 6 1 6 5 1 1 2 3 2 3 3 3 2 3 4 5 4 6 9 8 11 17 14 11
44 20 19 25 19 13 5 6 4 7 5 6 6 4 5 8 7 6 6 1 3 4 3 4 4 3 1 4 6 2 1 3 2 3 3 2 6 5 3 3 9 17 19 16 14
36 5 22 29 8 4 4 7 6 5 5 2 4 4 7 6 6 3 9 3 8 11 8 4 5 4 1 2 1 1 4 5 3 3 1 3 6 4 6 4 8 15 19 17 15
29 8 30 35 6 3 1 1 5 4 5 6 4 2 3 6 5 5 4 1 5 7 7 7 1 3 7 4 4 4 5 4 4 3 4 3 5 1 5 5 4 9 15 18 19
15 5 6 17 5 7 6 4 4 6 4 4 5 5 4 3 4 6 4 1 2 3 3 3 3 5 7 4 5 5 5 5 5 3 3 6 8 6 5 6 7 9 12 17 21
12 6 13 9 10 2 9 11 8 6 4 7 1 5 7 4 3 3 2 3 2 4 3 4 4 2 3 4 1 4 6 10 8 5 6 5 6 8 6 5 10 11 10 16 20
18 10 9 9 26 8 14 12 18 6 9 6 5 10 7 7 9 9 9 5 6 3 5 1 2 3 3 4 5 4 5 8 6 4 8 5 12 8 20 8 9 13 14 21 23
19 21 27 19 17 14 16 12 11 12 8 6 12 7 6 5 5 7 8 13 9 8 4 6 6 3 4 3 3 6 11 13 7 6 8 7 11 4 3 8 8 6 7 12 18
Wind_Direction
247 259 276 296 313 327 341 355 5 17 25 23 15 325 236 39 40 30 22 28 28 31 44 47 38 111 94 74 57 74 64 116 156 149 183 344 10 14 342 326 345 327 328 323 328
244 253 272 286 302 319 328 344 2 11 13 20 20 10 159 41 37 42 35 30 16 22 35 66 71 125 73 49 31 64 86 165 194 152 168 135 102 346 3 336 329 321 332 334 330
243 249 258 274 289 302 319 330 350 5 8 15 24 67 63 53 24 24 31 30 20 27 35 67 79 82 70 49 25 53 117 154 145 121 120 87 57 53 353 334 329 323 330 337 332
245 246 255 260 269 282 301 320 338 352 360 8 32 81 59 9 133 33 33 23 21 44 55 50 143 70 70 57 42 91 86 136 137 88 121 139 93 310 35 319 330 333 335 335 334
244 242 246 254 257 264 283 306 327 337 347 358 319 286 357 75 85 60 46 31 22 45 97 96 88 101 97 94 74 78 133 84 90 123 110 85 29 316 300 344 343 344 349 342 337
240 240 239 242 247 249 258 283 310 315 341 25 68 90 158 109 97 78 56 38 37 59 76 111 98 106 90 71 71 118 111 93 50 133 163 10 150 354 342 347 351 357 359 353 351
236 237 235 231 238 238 235 250 272 280 292 83 96 77 88 119 115 105 80 61 59 78 92 92 100 88 105 97 100 117 80 64 26 349 295 265 31 351 344 353 358 2 4 359 358
239 230 231 228 224 232 232 240 249 250 238 198 210 62 109 126 103 101 122 96 78 82 97 89 87 79 65 113 55 57 54 60 323 17 2 45 344 318 350 0 359 6 10 7 9
245 231 225 221 220 220 222 227 231 222 219 194 213 146 126 132 131 115 139 128 111 99 91 76 71 76 73 71 37 17 118 11 358 42 359 44 292 348 5 7 359 7 8 11 11
244 233 226 214 214 210 213 202 201 190 173 178 186 145 168 156 149 130 130 142 123 119 83 51 57 71 38 53 217 233 71 14 315 340 9 10 324 323 10 11 4 8 8 20 22
244 232 222 213 209 203 199 167 163 173 193 157 148 136 144 148 148 141 125 119 114 76 64 30 68 91 126 87 114 116 98 37 262 296 23 358 290 306 5 11 7 7 13 16 20
246 232 218 210 207 200 195 190 202 167 124 161 168 171 160 165 129 144 146 121 95 98 55 28 103 171 133 136 111 100 103 315 298 305 63 360 296 305 3 7 9 1 11 16 26
245 231 215 208 205 203 202 204 202 175 97 165 166 170 170 178 146 145 154 117 100 69 20 128 159 144 178 108 125 86 112 143 183 327 333 326 316 331 249 9 360 14 13 28 27
235 235 212 208 210 205 209 202 198 182 70 205 190 197 180 157 57 139 129 124 56 134 119 89 97 116 98 67 35 74 151 133 94 48 248 46 264 301 267 302 350 1 5 16 29
219 226 218 197 207 193 194 184 177 159 355 112 163 158 156 161 136 102 125 88 123 118 114 226 142 128 96 103 65 160 184 143 111 78 51 319 81 267 339 276 295 331 359 12 17
220 211 211 206 213 189 172 161 150 52 254 163 135 158 113 99 107 124 124 99 116 83 38 91 98 92 154 68 74 15 108 53 57 61 32 299 119 274 206 208 191 250 3 24 27
214 205 216 207 211 186 162 149 71 171 356 236 179 163 137 143 120 184 151 136 147 96 341 14 1 341 69 93 72 74 65 357 355 12 213 209 17 242 196 202 186 191 191 98 33
202 200 206 208 196 179 163 77 161 215 205 161 130 104 171 156 162 158 118 160 235 101 113 142 311 155 2 155 163 85 129 146 196 262 282 263 252 268 195 165 174 174 179 170 85
181 190 203 202 194 177 169 144 203 198 162 146 88 104 238 144 144 155 205 214 208 181 135 135 9 6 65 50 337 133 26 155 111 52 27 272 287 274 153 181 193 193 199 200 175
179 182 198 197 194 179 126 212 202 173 132 146 148 153 175 182 139 171 178 208 197 193 200 192 102 4 21 48 25 79 149 60 1 81 303 293 282 244 225 227 211 212 210 201 192
172 159 193 193 188 182 193 216 201 194 168 155 163 134 194 171 157 187 203 274 173 146 117 150 103 267 31 197 180 115 99 60 116 125 169 307 273 209 214 226 212 220 218 206 197
157 141 173 182 169 207 176 189 155 159 191 167 121 116 165 160 142 189 204 245 175 153 158 199 119 131 190 10 17 152 159 145 120 232 216 149 273 198 226 245 207 217 211 207 205
147 112 167 176 184 226 317 24 160 138 194 165 169 164 168 164 134 178 187 75 179 159 168 177 302 69 351 1 350 219 191 145 124 111 210 147 260 181 247 265 231 201 202 206 204
135 125 146 201 218 156 146 197 174 211 172 162 139 110 115 109 0 157 138 152 139 173 135 121 123 160 183 175 131 185 179 169 135 119 175 236 299 292 261 248 228 219 213 210 209
153 170 169 181 215 208 182 164 156 173 228 187 84 207 169 119 81 149 126 120 57 164 90 115 157 86 36 51 86 174 173 173 186 190 171 201 217 264 258 259 266 244 226 223 218
151 143 153 165 172 178 197 198 183 172 150 216 198 179 192 157 184 183 144 187 182 169 149 75 162 109 338 352 25 269 222 202 217 235 268 286 284 236 265 269 250 252 251 236 229
165 160 156 167 176 182 205 180 189 162 213 204 183 125 187 207 131 105 125 133 139 142 141 135 138 111 249 351 16 308 216 187 186 203 160 191 228 135 266 276 260 244 235 261 263